Track LAPAN-TUBSAT now! 10-day predictions LAPAN-TUBSAT is classified as:
1 29709U 07001A 26019.29372829 .00000957 00000-0 11672-3 0 9996 2 29709 98.1278 15.2298 0011244 316.3647 43.6677 14.85738459 29045